Time,TemperatureF,DewpointF,PressureIn,WindDirection,WindDirectionDegrees,WindSpeedMPH,WindSpeedGustMPH,Humidity,HourlyPrecipIn,Conditions,Clouds,dailyrainin,SoftwareType,DateUTC
2013-03-10 00:02:00,-999.0,-99.9,30.21,East,92,3.0,4.0,-999,-99.99,,,-99.99,,2013-03-10 09:02:00,
2013-03-10 00:11:00,-999.0,-99.9,30.21,WNW,289,1.0,5.0,-999,-99.99,,,-99.99,,2013-03-10 09:11:00,
2013-03-10 00:21:00,-999.0,-99.9,30.21,NNE,19,2.0,3.0,-999,-99.99,,,-99.99,,2013-03-10 09:21:00,
2013-03-10 00:32:00,31.0,-99.9,30.21,ENE,57,2.0,2.0,-999,-99.99,,,-99.99,,2013-03-10 09:32:00,
2013-03-10 00:42:00,-999.0,-99.9,30.22,WNW,282,2.0,4.0,-999,-99.99,,,-99.99,,2013-03-10 09:42:00,
2013-03-10 00:52:00,-999.0,-99.9,30.22,ESE,115,1.0,2.0,-999,-99.99,,,-99.99,,2013-03-10 09:52:00,
2013-03-10 01:02:00,31.0,-99.9,30.22,SE,142,2.0,3.0,-999,-99.99,,,-99.99,,2013-03-10 10:02:00,
2013-03-10 01:11:00,-999.0,-99.9,30.22,SSE,152,0.0,2.0,-999,-99.99,,,-99.99,,2013-03-10 10:11:00,
2013-03-10 01:22:00,-999.0,-99.9,30.23,North,8,2.0,3.0,-999,-99.99,,,-99.99,,2013-03-10 10:22:00,
2013-03-10 01:42:00,-999.0,-99.9,30.22,WSW,240,3.0,6.0,-999,-99.99,,,-99.99,,2013-03-10 10:42:00,
2013-03-10 03:02:00,31.0,-99.9,30.22,NE,46,3.0,5.0,-999,-99.99,,,-99.99,,2013-03-10 11:02:00,
2013-03-10 03:12:00,-999.0,-99.9,30.23,NNE,14,3.0,6.0,-999,-99.99,,,-99.99,,2013-03-10 11:12:00,
2013-03-10 03:22:00,-999.0,-99.9,30.23,North,5,3.0,5.0,-999,-99.99,,,-99.99,,2013-03-10 11:22:00,
2013-03-10 03:32:00,30.0,-99.9,30.23,NNE,28,4.0,5.0,-999,-99.99,,,-99.99,,2013-03-10 11:32:00,
2013-03-10 03:42:00,-999.0,-99.9,30.23,WNW,288,1.0,2.0,-999,-99.99,,,-99.99,,2013-03-10 11:42:00,
2013-03-10 03:52:00,-999.0,-99.9,30.23,ENE,76,1.0,2.0,-999,-99.99,,,-99.99,,2013-03-10 11:52:00,
2013-03-10 04:02:00,30.0,-99.9,30.23,NW,323,-999.0,2.0,-999,-99.99,,,-99.99,,2013-03-10 12:02:00,
2013-03-10 04:11:00,-999.0,-99.9,30.23,NNE,19,1.0,4.0,-999,-99.99,,,-99.99,,2013-03-10 12:11:00,
2013-03-10 04:21:00,-999.0,-99.9,30.23,NNW,338,2.0,3.0,-999,-99.99,,,-99.99,,2013-03-10 12:21:00,
2013-03-10 04:32:00,31.0,-99.9,30.22,North,349,2.0,3.0,-999,-99.99,,,-99.99,,2013-03-10 12:32:00,
2013-03-10 04:42:00,-999.0,-99.9,30.22,WNW,293,2.0,2.0,-999,-99.99,,,-99.99,,2013-03-10 12:42:00,
2013-03-10 04:52:00,-999.0,-99.9,30.22,NNW,345,2.0,3.0,-999,-99.99,,,-99.99,,2013-03-10 12:52:00,
2013-03-10 05:01:00,-999.0,-99.9,30.22,North,355,3.0,5.0,-999,-99.99,,,-99.99,,2013-03-10 13:01:00,
2013-03-10 05:11:00,-999.0,-99.9,30.22,NNE,12,2.0,3.0,-999,-99.99,,,-99.99,,2013-03-10 13:11:00,
2013-03-10 05:21:00,-999.0,-99.9,30.22,North,4,4.0,5.0,-999,-99.99,,,-99.99,,2013-03-10 13:21:00,
2013-03-10 05:32:00,31.0,-99.9,30.21,NE,40,3.0,4.0,-999,-99.99,,,-99.99,,2013-03-10 13:32:00,
2013-03-10 05:42:00,-999.0,-99.9,30.21,NW,317,1.0,3.0,-999,-99.99,,,-99.99,,2013-03-10 13:42:00,
2013-03-10 05:52:00,-999.0,-99.9,30.21,NNW,334,1.0,2.0,-999,-99.99,,,-99.99,,2013-03-10 13:52:00,
2013-03-10 06:02:00,32.0,-99.9,30.21,NNE,21,2.0,2.0,-999,-99.99,,,-99.99,,2013-03-10 14:02:00,
2013-03-10 06:12:00,32.0,-99.9,30.21,NW,317,-999.0,2.0,-999,-99.99,,,-99.99,,2013-03-10 14:12:00,
2013-03-10 06:32:00,-999.0,-99.9,30.21,North,349,2.0,4.0,-999,-99.99,,,-99.99,,2013-03-10 14:32:00,
2013-03-10 06:42:00,33.0,-99.9,30.21,NW,320,2.0,3.0,-999,-99.99,,,-99.99,,2013-03-10 14:42:00,
2013-03-10 06:52:00,32.0,-99.9,30.21,ENE,67,1.0,2.0,-999,-99.99,,,-99.99,,2013-03-10 14:52:00,
2013-03-10 07:01:00,33.0,-99.9,30.21,NE,39,1.0,2.0,-999,-99.99,,,-99.99,,2013-03-10 15:01:00,
2013-03-10 07:11:00,32.0,-99.9,30.20,SSW,211,1.0,2.0,-999,-99.99,,,-99.99,,2013-03-10 15:11:00,
2013-03-10 07:21:00,33.0,-99.9,30.20,SW,223,3.0,4.0,-999,-99.99,,,-99.99,,2013-03-10 15:21:00,
2013-03-10 07:32:00,33.0,-99.9,30.20,South,185,2.0,3.0,-999,-99.99,,,-99.99,,2013-03-10 15:32:00,
2013-03-10 07:42:00,33.0,-99.9,30.19,SE,131,3.0,4.0,-999,-99.99,,,-99.99,,2013-03-10 15:42:00,
2013-03-10 07:52:00,33.0,-99.9,30.19,SSW,213,4.0,5.0,-999,-99.99,,,-99.99,,2013-03-10 15:52:00,
2013-03-10 08:02:00,34.0,-99.9,30.19,SW,215,5.0,6.0,-999,-99.99,,,-99.99,,2013-03-10 16:02:00,
2013-03-10 08:12:00,33.0,-99.9,30.19,SSW,195,2.0,5.0,-999,-99.99,,,-99.99,,2013-03-10 16:12:00,
2013-03-10 08:22:00,33.0,-99.9,30.18,ESE,121,3.0,4.0,-999,-99.99,,,-99.99,,2013-03-10 16:22:00,
2013-03-10 08:32:00,33.0,-99.9,30.18,East,88,1.0,3.0,-999,-99.99,,,-99.99,,2013-03-10 16:32:00,
2013-03-10 08:42:00,33.0,-99.9,30.17,North,350,0.0,1.0,-999,-99.99,,,-99.99,,2013-03-10 16:42:00,
2013-03-10 08:52:00,33.0,-99.9,30.16,NNW,342,-999.0,4.0,-999,-99.99,,,-99.99,,2013-03-10 16:52:00,
2013-03-10 09:01:00,32.0,-99.9,30.16,NE,36,2.0,3.0,-999,-99.99,,,-99.99,,2013-03-10 17:01:00,
2013-03-10 09:11:00,33.0,-99.9,30.15,East,93,1.0,2.0,-999,-99.99,,,-99.99,,2013-03-10 17:11:00,
2013-03-10 09:21:00,34.0,-99.9,30.15,SSE,156,3.0,6.0,-999,-99.99,,,-99.99,,2013-03-10 17:21:00,
2013-03-10 09:32:00,34.0,-99.9,30.14,SSE,161,3.0,7.0,-999,-99.99,,,-99.99,,2013-03-10 17:32:00,
2013-03-10 09:41:00,33.0,-99.9,30.14,SW,229,2.0,4.0,-999,-99.99,,,-99.99,,2013-03-10 17:41:00,
2013-03-10 09:52:00,34.0,-99.9,30.13,SW,215,6.0,9.0,-999,-99.99,,,-99.99,,2013-03-10 17:52:00,
2013-03-10 10:01:00,34.0,-99.9,30.13,SSW,209,6.0,9.0,-999,-99.99,,,-99.99,,2013-03-10 18:01:00,
2013-03-10 10:12:00,34.0,-99.9,30.12,South,186,7.0,9.0,-999,-99.99,,,-99.99,,2013-03-10 18:12:00,
2013-03-10 10:22:00,35.0,-99.9,30.12,South,174,8.0,8.0,-999,-99.99,,,-99.99,,2013-03-10 18:22:00,
2013-03-10 10:32:00,35.0,-99.9,30.12,South,171,6.0,8.0,-999,-99.99,,,-99.99,,2013-03-10 18:32:00,
2013-03-10 10:42:00,35.0,-99.9,30.11,South,172,6.0,8.0,-999,-99.99,,,-99.99,,2013-03-10 18:42:00,
2013-03-10 10:52:00,35.0,-99.9,30.11,SSE,156,7.0,9.0,-999,-99.99,,,-99.99,,2013-03-10 18:52:00,
2013-03-10 11:02:00,35.0,-99.9,30.11,SSE,163,7.0,11.0,-999,-99.99,,,-99.99,,2013-03-10 19:02:00,
2013-03-10 11:11:00,36.0,-99.9,30.10,SSW,193,10.0,12.0,-999,-99.99,,,-99.99,,2013-03-10 19:11:00,
2013-03-10 11:22:00,35.0,-99.9,30.10,SSW,193,8.0,11.0,-999,-99.99,,,-99.99,,2013-03-10 19:22:00,
2013-03-10 11:32:00,36.0,-99.9,30.10,SSW,201,7.0,9.0,-999,-99.99,,,-99.99,,2013-03-10 19:32:00,
2013-03-10 11:42:00,36.0,-99.9,30.09,South,176,5.0,7.0,-999,-99.99,,,-99.99,,2013-03-10 19:42:00,
2013-03-10 11:53:00,37.0,-99.9,30.08,SSE,167,8.0,10.0,-999,-99.99,,,-99.99,,2013-03-10 19:53:00,
2013-03-10 12:02:00,37.0,-99.9,30.08,SSE,164,7.0,9.0,-999,-99.99,,,-99.99,,2013-03-10 20:02:00,
2013-03-10 12:13:00,37.0,-99.9,30.08,South,185,9.0,11.0,-999,-99.99,,,-99.99,,2013-03-10 20:13:00,
2013-03-10 12:22:00,38.0,-99.9,30.08,South,181,11.0,15.0,-999,-99.99,,,-99.99,,2013-03-10 20:22:00,
2013-03-10 12:33:00,40.0,-99.9,30.08,SSW,210,13.0,21.0,-999,-99.99,,,-99.99,,2013-03-10 20:33:00,
2013-03-10 12:43:00,39.0,-99.9,30.09,SSW,210,15.0,20.0,-999,-99.99,,,-99.99,,2013-03-10 20:43:00,
2013-03-10 12:53:00,38.0,-99.9,30.09,SW,216,17.0,20.0,-999,-99.99,,,-99.99,,2013-03-10 20:53:00,
2013-03-10 13:02:00,39.0,-99.9,30.09,SW,235,19.0,23.0,-999,-99.99,,,-99.99,,2013-03-10 21:02:00,
2013-03-10 13:12:00,39.0,-99.9,30.09,SW,223,17.0,24.0,-999,-99.99,,,-99.99,,2013-03-10 21:12:00,
2013-03-10 13:23:00,39.0,-99.9,30.09,SW,224,16.0,24.0,-999,-99.99,,,-99.99,,2013-03-10 21:23:00,
2013-03-10 13:33:00,39.0,-99.9,30.09,SSW,212,24.0,29.0,-999,-99.99,,,-99.99,,2013-03-10 21:33:00,
2013-03-10 13:43:00,38.0,-99.9,30.10,SW,214,21.0,30.0,-999,-99.99,,,-99.99,,2013-03-10 21:43:00,
2013-03-10 13:53:00,38.0,-99.9,30.10,SW,223,17.0,29.0,-999,-99.99,,,-99.99,,2013-03-10 21:53:00,
2013-03-10 14:03:00,37.0,-99.9,30.11,SW,220,23.0,32.0,-999,-99.99,,,-99.99,,2013-03-10 22:03:00,
2013-03-10 14:12:00,37.0,-99.9,30.11,SW,218,19.0,32.0,-999,-99.99,,,-99.99,,2013-03-10 22:12:00,
2013-03-10 14:22:00,37.0,-99.9,30.11,SW,225,19.0,30.0,-999,-99.99,,,-99.99,,2013-03-10 22:22:00,
2013-03-10 14:33:00,37.0,-99.9,30.11,SW,223,23.0,34.0,-999,-99.99,,,-99.99,,2013-03-10 22:33:00,
2013-03-10 14:43:00,37.0,-99.9,30.12,SW,223,15.0,31.0,-999,-99.99,,,-99.99,,2013-03-10 22:43:00,
2013-03-10 14:53:00,38.0,-99.9,30.12,SW,235,21.0,28.0,-999,-99.99,,,-99.99,,2013-03-10 22:53:00,
2013-03-10 15:03:00,38.0,-99.9,30.12,SW,230,16.0,24.0,-999,-99.99,,,-99.99,,2013-03-10 23:03:00,
2013-03-10 15:12:00,37.0,-99.9,30.13,WNW,300,9.0,26.0,-999,-99.99,,,-99.99,,2013-03-10 23:12:00,
2013-03-10 15:23:00,38.0,-99.9,30.12,SSW,213,13.0,23.0,-999,-99.99,,,-99.99,,2013-03-10 23:23:00,
2013-03-10 15:33:00,38.0,-99.9,30.13,WSW,241,13.0,24.0,-999,-99.99,,,-99.99,,2013-03-10 23:33:00,
2013-03-10 15:43:00,38.0,-99.9,30.13,WSW,249,9.0,26.0,-999,-99.99,,,-99.99,,2013-03-10 23:43:00,
2013-03-10 15:53:00,38.0,-99.9,30.13,WSW,246,11.0,22.0,-999,-99.99,,,-99.99,,2013-03-10 23:53:00,
2013-03-10 16:03:00,38.0,-99.9,30.13,SW,229,19.0,30.0,-999,-99.99,,,-99.99,,2013-03-11 00:03:00,
2013-03-10 16:13:00,38.0,-99.9,30.14,WSW,240,15.0,32.0,-999,-99.99,,,-99.99,,2013-03-11 00:13:00,
2013-03-10 16:23:00,38.0,-99.9,30.14,WSW,245,18.0,31.0,-999,-99.99,,,-99.99,,2013-03-11 00:23:00,
2013-03-10 16:33:00,38.0,-99.9,30.14,WSW,240,17.0,30.0,-999,-99.99,,,-99.99,,2013-03-11 00:33:00,
2013-03-10 16:43:00,38.0,-99.9,30.15,WSW,248,24.0,33.0,-999,-99.99,,,-99.99,,2013-03-11 00:43:00,
2013-03-10 16:53:00,38.0,-99.9,30.15,WSW,245,24.0,39.0,-999,-99.99,,,-99.99,,2013-03-11 00:53:00,
2013-03-10 17:03:00,38.0,-99.9,30.16,SW,234,22.0,33.0,-999,-99.99,,,-99.99,,2013-03-11 01:03:00,
2013-03-10 17:13:00,37.0,-99.9,30.17,SW,234,19.0,32.0,-999,-99.99,,,-99.99,,2013-03-11 01:13:00,
2013-03-10 17:23:00,37.0,-99.9,30.16,SW,229,19.0,26.0,-999,-99.99,,,-99.99,,2013-03-11 01:23:00,
2013-03-10 17:33:00,37.0,-99.9,30.17,SW,226,21.0,32.0,-999,-99.99,,,-99.99,,2013-03-11 01:33:00,
2013-03-10 17:43:00,37.0,-99.9,30.17,SW,226,22.0,30.0,-999,-99.99,,,-99.99,,2013-03-11 01:43:00,
2013-03-10 17:53:00,37.0,-99.9,30.17,SW,236,21.0,28.0,-999,-99.99,,,-99.99,,2013-03-11 01:53:00,
2013-03-10 18:03:00,37.0,-99.9,30.17,SW,236,22.0,34.0,-999,-99.99,,,-99.99,,2013-03-11 02:03:00,
2013-03-10 18:13:00,37.0,-99.9,30.18,SW,221,25.0,31.0,-999,-99.99,,,-99.99,,2013-03-11 02:13:00,
2013-03-10 18:23:00,37.0,-99.9,30.18,SSW,213,21.0,27.0,-999,-99.99,,,-99.99,,2013-03-11 02:23:00,
2013-03-10 18:32:00,37.0,-99.9,30.18,SW,236,19.0,29.0,-999,-99.99,,,-99.99,,2013-03-11 02:32:00,
2013-03-10 18:42:00,37.0,-99.9,30.18,SW,221,17.0,26.0,-999,-99.99,,,-99.99,,2013-03-11 02:42:00,
2013-03-10 18:53:00,37.0,-99.9,30.18,SW,224,19.0,29.0,-999,-99.99,,,-99.99,,2013-03-11 02:53:00,
2013-03-10 19:02:00,37.0,-99.9,30.18,SW,224,17.0,28.0,-999,-99.99,,,-99.99,,2013-03-11 03:02:00,
2013-03-10 19:12:00,36.0,-99.9,30.19,WSW,247,15.0,23.0,-999,-99.99,,,-99.99,,2013-03-11 03:12:00,
2013-03-10 19:22:00,36.0,-99.9,30.19,WSW,237,11.0,21.0,-999,-99.99,,,-99.99,,2013-03-11 03:22:00,
2013-03-10 19:32:00,36.0,-99.9,30.19,SW,233,14.0,32.0,-999,-99.99,,,-99.99,,2013-03-11 03:32:00,
2013-03-10 19:43:00,36.0,-99.9,30.19,WSW,238,17.0,24.0,-999,-99.99,,,-99.99,,2013-03-11 03:43:00,
2013-03-10 19:53:00,36.0,-99.9,30.19,WSW,250,19.0,28.0,-999,-99.99,,,-99.99,,2013-03-11 03:53:00,
2013-03-10 20:03:00,36.0,-99.9,30.19,SW,229,18.0,26.0,-999,-99.99,,,-99.99,,2013-03-11 04:03:00,
2013-03-10 20:12:00,35.0,-99.9,30.20,WSW,244,17.0,27.0,-999,-99.99,,,-99.99,,2013-03-11 04:12:00,
2013-03-10 20:22:00,35.0,-99.9,30.20,SW,230,15.0,24.0,-999,-99.99,,,-99.99,,2013-03-11 04:22:00,
2013-03-10 20:33:00,35.0,-99.9,30.20,SW,236,13.0,31.0,-999,-99.99,,,-99.99,,2013-03-11 04:33:00,
2013-03-10 20:43:00,35.0,-99.9,30.20,WSW,246,16.0,27.0,-999,-99.99,,,-99.99,,2013-03-11 04:43:00,
2013-03-10 20:53:00,35.0,-99.9,30.20,SW,236,16.0,26.0,-999,-99.99,,,-99.99,,2013-03-11 04:53:00,
2013-03-10 21:04:00,35.0,-99.9,30.21,WSW,246,16.0,24.0,-999,-99.99,,,-99.99,,2013-03-11 05:04:00,
2013-03-10 21:12:00,35.0,-99.9,30.21,WSW,255,13.0,28.0,-999,-99.99,,,-99.99,,2013-03-11 05:12:00,
2013-03-10 21:22:00,35.0,-99.9,30.21,West,273,11.0,27.0,-999,-99.99,,,-99.99,,2013-03-11 05:22:00,
2013-03-10 21:32:00,35.0,-99.9,30.21,WSW,253,13.0,31.0,-999,-99.99,,,-99.99,,2013-03-11 05:32:00,
2013-03-10 21:43:00,35.0,-99.9,30.22,WSW,245,12.0,27.0,-999,-99.99,,,-99.99,,2013-03-11 05:43:00,
2013-03-10 21:52:00,35.0,-99.9,30.21,SW,229,13.0,33.0,-999,-99.99,,,-99.99,,2013-03-11 05:52:00,
2013-03-10 22:02:00,35.0,-99.9,30.21,West,261,16.0,30.0,-999,-99.99,,,-99.99,,2013-03-11 06:02:00,
2013-03-10 22:12:00,35.0,-99.9,30.22,West,280,21.0,32.0,-999,-99.99,,,-99.99,,2013-03-11 06:12:00,
2013-03-10 22:22:00,35.0,-99.9,30.22,WSW,253,17.0,37.0,-999,-99.99,,,-99.99,,2013-03-11 06:22:00,
2013-03-10 22:33:00,34.0,-99.9,30.22,West,267,22.0,34.0,-999,-99.99,,,-99.99,,2013-03-11 06:33:00,
2013-03-10 22:42:00,35.0,-99.9,30.22,West,272,15.0,24.0,-999,-99.99,,,-99.99,,2013-03-11 06:42:00,
2013-03-10 22:53:00,34.0,-99.9,30.22,West,263,19.0,33.0,-999,-99.99,,,-99.99,,2013-03-11 06:53:00,
2013-03-10 23:03:00,34.0,-99.9,30.23,West,265,16.0,35.0,-999,-99.99,,,-99.99,,2013-03-11 07:03:00,
2013-03-10 23:12:00,34.0,-99.9,30.23,WSW,250,19.0,44.0,-999,-99.99,,,-99.99,,2013-03-11 07:12:00,
2013-03-10 23:22:00,34.0,-99.9,30.23,West,263,17.0,33.0,-999,-99.99,,,-99.99,,2013-03-11 07:22:00,
2013-03-10 23:33:00,34.0,-99.9,30.24,West,278,21.0,34.0,-999,-99.99,,,-99.99,,2013-03-11 07:33:00,
2013-03-10 23:42:00,34.0,-99.9,30.23,West,272,21.0,31.0,-999,-99.99,,,-99.99,,2013-03-11 07:42:00,
2013-03-10 23:52:00,34.0,-99.9,30.23,WSW,242,14.0,23.0,-999,-99.99,,,-99.99,,2013-03-11 07:52:00,